Temp_Advection
nan nan nan nan nan nan nan nan nan nan nan nan nan nan nan nan nan nan nan nan nan nan nan nan nan nan nan nan nan nan nan nan nan nan nan nan nan nan nan nan nan nan nan
nan 0 0 0 0 0 0 -0 -0 0 0 0 0 -0 -0 0 0 0 0 0 -0 0 0 -0 -0 -0 -0 -0 0 0 0 -0 -0 -0 -0 0 0 0 0 -0 -0 0 nan
nan 0 0 0 0 0 -0 0 0 0 0 0 -0 -0 0 0 0 0 0 0 -0 -0 0 0 0 0 -0 -0 -0 0 0 0 -0 -0 -0 0 -0 -0 0 0 0 0 nan
nan 1 0 0 1 0 0 0 0 0 -0 -0 -0 0 0 0 0 0 -0 -0 0 0 0 0 -0 -0 -0 0 -0 0 0 0 0 0 -0 0 0 -0 -0 0 0 0 nan
nan 1 0 1 1 1 -0 -0 0 0 -0 0 0 0 0 0 -0 0 -0 -0 -0 0 0 0 0 0 -0 -0 -0 0 -0 -0 -0 0 0 0 -0 -0 -0 0 0 0 nan
nan 1 1 1 0 0 -0 -0 -0 -0 0 0 0 0 0 -0 -0 -0 0 0 0 0 0 0 0 0 -0 -0 0 0 0 -0 -0 -0 0 0 0 -0 -0 0 0 0 nan
nan 1 1 0 1 0 -0 -0 -0 0 0 0 0 0 0 -0 -0 -0 0 0 0 0 -0 0 0 0 -0 -0 -0 -0 -0 -0 -0 -0 0 0 0 0 0 0 0 0 nan
nan 0 0 0 0 0 0 -0 -0 0 0 0 0 0 -0 -0 -0 0 0 0 0 0 0 0 0 0 -0 0 0 -0 -0 -0 -0 0 0 0 -0 -0 0 0 0 0 nan
nan -0 1 1 1 0 0 -0 0 0 0 -0 -0 0 0 -0 -0 0 1 1 0 0 0 0 0 -0 -0 0 0 -0 -0 -0 0 0 0 -0 -0 -0 0 0 0 0 nan
nan 0 1 1 2 1 -1 -1 0 1 1 0 0 0 0 1 1 0 -0 1 0 0 0 0 0 0 0 0 0 -0 -0 -0 -0 0 0 0 0 0 0 0 -0 -0 nan
nan 0 0 0 0 -0 -0 0 1 1 1 0 0 0 0 0 0 1 0 0 0 0 0 -0 0 0 -0 -0 -0 -0 0 0 -0 0 0 -0 -0 -0 -0 -0 -0 -0 nan
nan -0 -0 -0 -0 -0 0 -0 0 0 0 0 -0 1 1 0 0 0 0 0 0 0 0 0 0 0 0 0 0 -0 -0 -0 -0 0 -0 -0 -0 -0 -0 -0 -0 -0 nan
nan 0 -0 -0 -0 0 0 0 0 0 0 0 0 0 0 0 0 0 0 0 0 0 0 0 -0 -0 0 0 -0 -0 -0 0 -0 -0 -0 -0 -0 -0 -0 -0 -0 -0 nan
nan 0 0 0 0 1 1 0 1 1 1 0 0 0 0 -0 -0 0 0 0 0 0 0 0 0 0 -0 -0 -0 -0 -0 -0 -0 -0 -0 -0 -0 -0 -0 -0 -0 -0 nan
nan 0 0 0 0 0 0 0 0 0 0 0 0 0 0 0 0 0 0 0 0 0 0 0 0 0 0 0 -0 -0 -0 -0 -0 -0 -0 -0 0 -0 -0 -0 -0 -0 nan
nan 0 0 0 0 0 0 -0 -0 0 0 0 0 0 0 0 0 0 0 -0 -0 -0 -0 -0 0 0 0 0 -0 -0 -0 -0 -0 -0 -0 -0 -0 -0 -0 -0 -0 -0 nan
nan 0 0 0 0 0 0 0 0 -0 0 0 0 0 0 0 0 0 0 -0 -0 -0 -0 -0 -0 -0 -0 -0 -0 -0 -0 -0 -0 -0 -0 -0 -0 -0 -0 -0 -0 -0 nan
nan 0 0 0 0 0 -0 -0 0 0 -0 -0 -0 0 0 0 0 0 0 -0 -0 -0 -0 -0 -0 -0 -0 -0 -0 -0 -0 -0 -0 -0 -0 -0 -0 -0 -0 -0 -0 -0 nan
nan -0 0 0 0 0 -0 -0 -0 -0 0 -0 -0 -0 -0 0 0 0 -0 -0 -0 -0 -0 0 -0 -0 -0 -0 -0 -0 -0 -0 -0 -0 -0 -0 -0 -0 -0 -0 -0 -0 nan
nan 0 -0 -0 -0 0 0 0 -0 -0 -0 0 -0 -0 -0 -0 -0 -0 -0 -0 -0 -0 -0 -0 0 0 -0 -0 -0 -0 -0 -0 -0 0 0 0 -0 -0 -0 -0 -0 -0 nan
nan 0 0 -0 -0 -0 -0 -0 0 -0 -0 -0 -0 -0 -0 0 -0 -0 -0 -0 -0 -0 -0 -0 -0 -0 -0 -0 -0 0 0 -0 0 0 0 0 0 0 0 0 -0 -0 nan
nan -0 -0 -0 -0 -0 -0 -0 -0 -0 -0 -0 -0 -0 -0 -0 -0 -0 -0 -0 -0 -0 -0 -0 -0 -0 -0 0 0 0 0 0 0 0 0 0 0 -0 -0 0 0 0 nan
nan -0 -0 0 0 0 0 -0 -0 -0 -0 -0 -0 -0 -0 -0 -0 -0 -0 0 -0 -0 -0 -0 0 0 0 0 0 0 0 0 0 0 0 0 0 0 -0 0 0 0 nan
nan -0 -0 0 0 0 0 0 0 0 -0 -0 -0 0 0 0 -0 0 0 0 0 0 0 0 0 0 0 0 0 0 0 0 0 0 0 0 0 0 0 0 0 -0 nan
nan -0 -0 0 -0 -0 0 0 0 -0 -0 0 0 0 0 0 0 0 0 0 0 0 0 0 0 0 0 0 0 -0 -0 -0 0 0 0 0 0 0 0 0 0 -0 nan
nan nan nan nan nan nan nan nan nan nan nan nan nan nan nan nan nan nan nan nan nan nan nan nan nan nan nan nan nan nan nan nan nan nan nan nan nan nan nan nan nan nan nan
Wind_Speed
30 32 32 33 31 28 26 26 25 20 17 16 15 12 17 18 18 15 13 11 12 12 13 14 14 14 14 12 12 11 11 13 14 12 11 11 13 13 12 12 12 9 5
30 29 32 33 33 32 33 31 27 25 20 19 17 17 16 15 16 15 12 11 12 12 10 12 12 12 12 13 12 13 13 13 14 14 14 13 13 13 14 15 14 11 9
33 32 29 32 35 35 34 32 30 26 23 21 19 19 16 15 14 11 11 12 12 12 11 12 10 10 12 14 14 14 14 14 14 15 15 14 14 14 16 14 15 14 13
39 34 33 31 35 36 34 35 32 29 27 22 21 18 17 15 13 12 13 13 14 13 13 11 10 10 11 11 14 16 15 15 14 14 14 13 13 14 14 14 14 14 13
37 36 35 30 31 33 33 33 31 31 28 24 21 18 15 15 14 13 13 14 14 15 15 14 14 16 14 14 15 16 16 17 17 16 16 15 15 15 15 14 16 17 15
39 38 36 32 29 32 29 29 31 29 27 24 20 17 16 16 15 15 16 17 18 17 19 19 19 19 17 16 17 17 16 15 15 17 17 17 16 17 16 13 13 14 14
30 35 38 35 34 33 30 28 28 29 26 27 24 20 20 20 20 20 18 20 21 22 21 19 19 20 18 19 17 17 16 16 16 16 16 17 18 18 17 17 16 16 16
19 28 39 36 33 30 32 31 29 29 26 24 25 24 24 24 22 22 22 21 20 21 21 22 22 21 21 20 18 17 16 17 17 17 16 15 15 16 16 17 16 16 15
28 30 36 41 31 29 33 33 31 31 30 29 30 27 23 23 26 25 22 21 20 17 18 20 20 18 17 16 15 14 15 17 18 15 13 12 11 11 11 10 10 10 11
16 23 25 33 42 30 29 36 36 31 29 28 26 23 22 22 21 15 16 18 16 15 18 17 13 12 14 16 12 11 10 11 10 10 10 9 8 8 7 6 6 8 8
4 12 20 21 19 17 16 36 27 25 24 22 22 20 15 15 11 11 11 13 13 13 10 10 10 9 8 6 4 2 2 2 4 3 2 5 7 8 8 8 8 9 8
8 8 7 8 20 23 21 6 2 10 7 6 11 13 12 10 7 6 5 6 8 8 7 5 2 1 2 1 1 1 4 5 5 5 6 5 7 8 9 9 8 8 7
7 8 7 5 4 5 6 12 8 7 6 11 10 7 6 6 5 7 7 7 5 4 4 3 2 1 2 3 1 0 2 2 0 2 3 4 5 6 5 6 7 6 5
9 11 8 7 9 14 13 14 18 18 17 13 9 9 9 9 7 6 5 4 3 3 4 4 3 1 1 1 2 2 3 3 3 2 3 4 5 4 5 5 7 6 6
6 12 12 12 12 15 15 15 13 12 10 10 11 10 8 7 6 5 4 5 6 6 5 5 3 2 1 1 1 2 3 5 5 5 5 5 4 2 4 6 7 7 7
8 11 12 13 12 12 13 13 12 11 10 10 8 4 8 9 9 10 11 10 9 8 7 7 5 4 4 5 5 5 5 5 5 5 4 3 3 5 6 8 8 7 6
8 10 10 10 10 9 8 7 10 13 10 9 8 12 11 14 14 14 15 13 11 11 11 11 9 8 7 6 5 5 4 5 6 7 7 8 7 7 7 7 6 6 5
10 9 8 10 10 10 11 9 8 10 14 16 14 15 17 14 13 12 12 11 9 8 7 8 8 8 8 7 5 5 5 7 9 9 9 10 11 12 11 9 7 7 7
13 12 12 13 14 15 16 15 14 14 14 15 16 15 15 13 12 12 10 8 7 5 3 2 4 5 6 8 6 5 5 6 6 7 9 11 15 16 14 13 11 9 9
15 17 17 16 16 15 14 13 14 13 12 13 13 13 14 12 11 10 8 8 9 7 5 4 4 5 5 7 10 8 6 3 1 2 5 8 12 15 14 11 11 12 10
14 13 13 14 11 10 11 12 13 14 12 12 10 8 8 9 8 9 10 10 9 10 12 9 7 7 5 5 3 3 6 7 3 3 4 6 7 12 13 11 9 9 10
12 13 13 10 9 9 10 10 12 10 10 11 9 7 10 9 9 8 6 5 5 6 6 8 7 5 4 2 4 4 4 4 4 3 4 5 5 8 11 10 9 9 11
13 15 13 11 10 8 9 8 10 11 11 10 9 8 9 10 6 5 5 6 5 6 6 6 5 5 3 3 4 6 9 9 6 7 8 9 8 7 9 10 11 13 12
10 13 13 9 11 9 9 9 10 12 10 12 14 14 12 11 8 8 11 12 13 12 12 11 13 13 13 13 13 13 15 15 15 14 12 10 9 8 13 12 12 13 16
13 11 13 12 6 15 13 13 16 16 13 11 14 18 17 15 12 9 10 11 15 15 14 11 10 12 13 15 15 15 14 15 18 20 20 16 13 11 16 11 14 16 15
15 16 15 14 11 10 19 19 17 15 20 16 14 16 18 19 15 12 12 12 13 12 11 12 13 17 20 21 21 21 21 21 16 14 17 17 15 14 14 15 15 14 17
Wind_Direction
224 228 225 222 224 223 222 223 224 232 233 239 239 242 240 266 252 264 267 265 271 274 275 269 272 271 276 280 278 282 293 285 278 284 276 279 286 290 289 283 288 287 289
221 224 228 225 227 227 225 225 227 231 235 233 246 245 255 251 257 259 260 260 273 277 276 275 273 270 274 277 278 285 285 281 280 280 275 274 277 277 285 280 282 273 290
223 224 228 232 229 228 226 226 230 233 234 235 236 243 248 251 250 265 264 259 268 275 276 279 277 278 275 271 276 279 287 283 282 283 279 275 268 275 284 289 282 268 279
224 227 231 236 233 230 230 230 232 233 231 232 237 247 246 252 263 272 274 272 266 269 273 278 276 278 294 284 278 280 283 278 280 284 284 274 270 274 274 277 280 281 283
227 230 232 237 237 229 232 230 230 231 234 234 239 240 247 263 265 265 266 268 270 271 265 270 272 275 289 297 293 288 277 278 277 271 273 271 270 274 278 278 279 275 272
223 230 231 234 234 226 230 228 228 228 225 226 232 237 247 254 259 256 261 267 272 273 268 266 264 266 280 291 288 288 283 281 280 277 277 275 272 277 278 275 276 270 264
222 228 229 226 234 234 231 228 223 219 225 235 236 241 246 248 253 257 268 273 270 276 272 269 265 272 281 291 284 272 277 280 285 284 282 279 276 271 268 268 273 270 268
247 233 230 229 228 235 236 229 224 222 229 238 235 236 241 249 253 260 266 270 267 271 270 269 266 267 277 282 275 270 275 280 282 281 279 281 281 275 271 267 266 266 267
244 249 238 231 236 250 245 232 225 228 229 231 233 239 249 253 262 265 263 261 263 266 266 266 269 271 272 268 266 273 281 287 287 283 282 282 278 275 268 259 257 270 273
238 241 223 221 224 247 256 232 231 230 231 235 240 244 254 260 264 269 265 256 256 261 265 268 262 267 272 270 265 274 279 286 283 272 258 247 245 251 260 263 280 298 296
279 238 217 211 226 237 260 240 226 240 234 243 249 257 261 259 254 247 247 249 250 253 257 258 269 274 283 292 297 269 260 271 299 277 274 296 308 317 316 319 317 311 301
83 100 125 176 227 250 251 257 215 213 182 227 240 243 238 245 235 219 228 227 227 224 231 244 244 214 202 205 201 306 314 293 279 294 308 336 353 3 20 25 19 8 5
194 169 131 155 190 190 210 232 221 221 215 231 222 209 181 173 172 174 165 166 179 176 173 146 99 25 81 76 77 331 110 118 20 336 6 28 63 71 48 12 3 5 16
180 176 179 183 192 182 187 189 198 203 198 193 189 180 166 160 154 148 148 162 171 140 141 152 155 180 301 5 55 73 96 90 92 88 89 97 90 38 35 28 22 24 25
187 163 167 163 165 166 162 154 154 160 161 171 163 158 158 165 165 162 150 145 144 158 162 150 152 163 174 159 113 98 93 93 90 93 101 108 105 44 354 342 337 340 345
162 164 158 160 158 176 170 163 155 159 159 159 158 179 177 161 154 143 133 129 127 123 119 116 122 122 118 115 107 103 104 99 98 100 91 57 32 29 26 17 11 14 10
175 173 178 179 175 179 172 171 175 167 175 179 169 145 140 138 134 130 123 118 113 113 110 107 102 103 100 98 102 112 112 102 89 79 69 64 46 24 6 0 356 1 7
150 152 154 155 159 157 154 154 166 178 165 149 143 139 139 136 131 129 130 125 116 109 103 104 103 97 93 87 100 110 107 100 88 72 62 52 40 31 20 13 3 356 351
145 146 140 134 132 133 128 131 138 140 143 142 143 145 143 140 124 115 116 115 104 85 75 161 147 120 91 70 80 102 98 106 87 69 56 48 32 25 23 23 18 7 356
133 132 134 133 133 130 127 130 134 140 144 138 136 144 146 144 131 119 112 112 89 80 80 130 151 165 130 86 85 78 71 62 75 2 13 11 16 15 10 14 19 15 6
155 153 150 150 145 152 159 144 140 138 134 135 134 145 151 152 142 129 114 116 97 81 72 86 106 120 138 123 106 76 37 41 6 325 344 353 354 3 357 349 347 353 356
155 155 155 160 163 163 178 181 173 168 169 160 150 161 174 168 159 155 150 126 133 103 93 83 88 107 93 14 264 282 300 341 27 40 8 353 332 4 9 354 329 314 326
195 182 179 181 177 182 190 198 188 181 187 183 179 166 159 158 154 181 207 211 202 195 193 207 211 211 229 270 300 260 264 289 291 333 307 321 327 350 352 346 347 337 320
173 187 190 192 210 218 224 229 208 202 203 208 209 202 197 200 217 233 239 235 228 234 240 245 252 250 253 258 260 267 261 259 267 268 288 277 267 271 334 318 327 335 332
191 190 202 215 243 222 221 229 232 231 233 238 231 224 219 226 228 247 242 248 246 248 247 250 257 264 265 270 274 272 271 275 273 266 263 261 258 283 317 305 316 311 321
220 223 236 244 245 233 221 227 233 238 238 245 247 238 227 225 233 246 243 237 230 232 251 267 277 284 288 287 286 282 275 266 260 266 255 251 246 289 297 309 314 310 317
Height
1543 1546 1548 1551 1554 1557 1559 1561 1563 1565 1567 1569 1570 1570 1571 1571 1572 1572 1572 1572 1572 1572 1572 1572 1571 1572 1571 1570 1569 1569 1568 1568 1568 1567 1566 1566 1564 1563 1563 1562 1561 1560 1558
1538 1542 1544 1547 1551 1554 1555 1558 1560 1562 1564 1566 1567 1568 1568 1568 1569 1568 1569 1569 1570 1570 1570 1570 1570 1569 1568 1568 1567 1566 1566 1566 1566 1564 1564 1563 1562 1561 1560 1560 1558 1558 1557
1535 1538 1541 1543 1546 1549 1552 1554 1557 1559 1560 1562 1563 1564 1565 1566 1566 1566 1566 1567 1567 1568 1568 1567 1566 1566 1566 1566 1565 1564 1564 1564 1563 1561 1561 1560 1559 1558 1557 1557 1556 1555 1554
1530 1534 1537 1538 1540 1543 1547 1550 1552 1553 1556 1557 1558 1560 1561 1562 1562 1563 1563 1563 1563 1564 1564 1564 1564 1563 1563 1562 1562 1562 1561 1560 1560 1559 1558 1558 1556 1555 1554 1553 1553 1552 1552
1525 1530 1533 1536 1537 1540 1542 1545 1547 1549 1550 1553 1554 1554 1556 1557 1558 1558 1559 1559 1560 1560 1561 1561 1561 1561 1560 1560 1559 1559 1558 1557 1556 1554 1554 1553 1552 1551 1550 1549 1548 1548 1547
1519 1523 1527 1530 1533 1535 1538 1540 1543 1545 1547 1549 1550 1551 1552 1552 1554 1555 1556 1557 1558 1557 1557 1558 1557 1557 1557 1557 1556 1555 1555 1554 1554 1552 1551 1549 1549 1547 1546 1546 1545 1543 1543
1513 1516 1520 1524 1526 1531 1535 1537 1537 1540 1544 1546 1547 1548 1549 1549 1549 1551 1554 1554 1554 1554 1553 1553 1553 1553 1553 1552 1552 1552 1551 1551 1550 1548 1547 1546 1544 1544 1543 1543 1542 1541 1540
1509 1511 1514 1516 1521 1525 1530 1532 1534 1536 1538 1541 1542 1544 1544 1545 1546 1547 1548 1549 1549 1549 1549 1548 1549 1549 1548 1547 1547 1547 1547 1546 1545 1544 1543 1542 1541 1539 1539 1538 1538 1538 1537
1501 1502 1506 1509 1512 1520 1524 1528 1529 1532 1532 1533 1535 1538 1540 1540 1541 1541 1541 1542 1543 1544 1544 1543 1543 1543 1542 1543 1543 1543 1542 1542 1541 1541 1540 1539 1538 1537 1536 1535 1534 1534 1534
1499 1499 1503 1504 1506 1514 1517 1519 1521 1524 1527 1528 1531 1533 1533 1534 1534 1534 1536 1536 1538 1539 1539 1539 1539 1539 1539 1538 1537 1538 1538 1538 1537 1536 1536 1535 1535 1534 1533 1532 1531 1531 1531
1499 1498 1500 1503 1506 1509 1512 1513 1513 1518 1521 1525 1527 1529 1529 1529 1529 1530 1531 1532 1534 1535 1537 1537 1537 1537 1537 1537 1537 1536 1536 1536 1535 1535 1535 1535 1534 1533 1532 1531 1531 1531 1532
1500 1499 1496 1500 1504 1506 1510 1507 1504 1518 1510 1519 1524 1525 1526 1526 1526 1527 1528 1531 1532 1534 1535 1535 1535 1536 1535 1535 1536 1536 1536 1537 1536 1536 1535 1535 1534 1533 1533 1533 1533 1533 1532
1500 1500 1499 1503 1504 1505 1507 1510 1512 1515 1519 1522 1524 1525 1526 1527 1527 1528 1528 1530 1533 1533 1534 1533 1534 1535 1536 1536 1536 1536 1535 1536 1536 1536 1536 1536 1536 1536 1535 1535 1534 1533 1533
1500 1501 1504 1504 1505 1508 1511 1513 1516 1519 1520 1523 1524 1524 1526 1528 1529 1530 1529 1530 1532 1533 1534 1534 1535 1536 1537 1537 1536 1536 1535 1535 1535 1535 1535 1536 1536 1537 1537 1535 1535 1534 1533
1501 1502 1503 1505 1509 1512 1513 1514 1517 1521 1522 1524 1525 1525 1526 1528 1529 1529 1530 1531 1532 1533 1534 1534 1536 1537 1537 1537 1538 1537 1537 1535 1535 1536 1537 1536 1536 1536 1536 1535 1534 1534 1534
1501 1504 1506 1509 1509 1515 1513 1515 1515 1521 1524 1525 1525 1527 1527 1527 1528 1529 1530 1531 1533 1534 1536 1536 1537 1538 1539 1538 1538 1539 1539 1539 1539 1538 1537 1538 1537 1535 1535 1534 1534 1533 1533
1505 1506 1506 1509 1510 1514 1514 1514 1517 1519 1526 1527 1526 1526 1530 1529 1529 1530 1530 1533 1535 1536 1536 1537 1538 1540 1542 1542 1541 1541 1540 1540 1540 1540 1540 1539 1539 1537 1536 1535 1534 1533 1533
1505 1507 1509 1509 1511 1513 1515 1517 1519 1523 1524 1525 1531 1529 1530 1533 1532 1533 1533 1534 1538 1539 1540 1540 1542 1543 1543 1543 1543 1543 1542 1542 1542 1543 1543 1541 1540 1538 1537 1534 1533 1533 1532
1506 1509 1511 1512 1515 1516 1516 1519 1523 1525 1528 1527 1529 1532 1532 1535 1534 1534 1536 1538 1539 1540 1542 1543 1542 1543 1545 1545 1544 1544 1544 1544 1544 1545 1543 1542 1542 1540 1537 1534 1533 1531 1532
1508 1510 1512 1517 1519 1521 1521 1523 1524 1526 1531 1532 1533 1534 1533 1534 1535 1537 1538 1539 1540 1540 1541 1540 1543 1543 1546 1548 1546 1545 1545 1545 1545 1546 1544 1543 1541 1540 1538 1536 1534 1532 1532
1510 1513 1514 1517 1521 1523 1526 1527 1529 1530 1532 1532 1533 1536 1536 1537 1538 1539 1540 1541 1541 1541 1541 1540 1542 1543 1545 1545 1547 1547 1547 1546 1545 1544 1541 1541 1540 1539 1538 1537 1535 1535 1533
1511 1514 1515 1518 1520 1522 1525 1526 1528 1530 1532 1534 1534 1536 1535 1538 1540 1541 1541 1541 1542 1542 1542 1543 1544 1544 1543 1544 1544 1544 1546 1546 1544 1543 1543 1541 1539 1536 1537 1536 1535 1534 1532
1512 1514 1516 1517 1519 1521 1523 1525 1526 1528 1531 1532 1533 1536 1537 1537 1537 1539 1540 1542 1541 1541 1542 1543 1543 1542 1541 1542 1542 1542 1543 1542 1543 1541 1539 1537 1537 1536 1536 1535 1533 1530 1529
1513 1513 1516 1517 1519 1519 1522 1524 1527 1528 1530 1532 1533 1535 1536 1536 1535 1536 1537 1539 1539 1540 1540 1539 1540 1539 1538 1539 1538 1538 1538 1538 1537 1536 1535 1535 1533 1532 1532 1531 1530 1527 1525
1510 1512 1512 1515 1515 1517 1521 1523 1526 1527 1528 1529 1530 1532 1533 1533 1534 1534 1535 1536 1536 1536 1535 1535 1535 1536 1535 1535 1534 1534 1533 1532 1531 1531 1530 1530 1529 1529 1528 1528 1526 1524 1522
1506 1508 1509 1511 1511 1512 1517 1521 1523 1523 1524 1526 1527 1528 1528 1530 1530 1531 1532 1533 1533 1534 1534 1533 1533 1531 1530 1528 1526 1525 1524 1524 1524 1524 1524 1525 1526 1525 1524 1524 1522 1521 1519